This demonstration page uses our WeatherBlox Daily Observations layout. Learn more.

Left ArrowRight Arrow

44.8408, -93.29828

Hourly Observations for April 21, 2019

Temp ( °F °C ) Dew Point ( °F °C ) Humidity (%) Winds ( mph kmh ) Pressure ( in mb ) Visibility ( mi km ) Precip ( " mm )
12:53 am 00:53 Partly Cloudy 65 18.3 40 4.4 40 40 SW 3 6 29.70 1006 10 16 0.00 0.00
1:53 am 01:53 Clear 65 18.3 40 4.4 40 40 SSW 12 19 29.71 1006 10 16 0.00 0.00
2:53 am 02:53 Partly Cloudy 64 17.8 40 4.4 41 41 SSW 9 15 29.71 1006 10 16 0.00 0.00
3:53 am 03:53 Clear 64 17.8 40 4.4 41 41 SSW 9 15 29.71 1006 10 16 0.00 0.00
4:53 am 04:53 Clear 57 13.9 41 5 55 55 ENE 9 15 29.72 1006 10 16 0.00 0.00
5:53 am 05:53 Mostly Cloudy 55 12.8 42 5.6 62 62 N 6 9 29.74 1007 10 16 0.00 0.00
6:53 am 06:53 Cloudy 56 13.3 42 5.6 60 60 NNE 8 13 29.77 1008 10 16 0.00 0.00
7:53 am 07:53 Cloudy with Light Rain 55 12.8 45 7.2 69 69 NE 6 9 29.79 1009 9 14 0.00 0.03
8:53 am 08:53 Mostly Cloudy with Light Rain 52 11.1 46 7.8 80 80 NE 9 15 29.79 1009 8 13 0.00 0.03
9:53 am 09:53 Partly Cloudy 59 15 47 8.3 64 64 E 12 19 29.75 1008 10 16 0.00 0.03
10:53 am 10:53 Mostly Cloudy 63 17.2 46 7.8 54 54 SE 8 13 29.78 1008 10 16 0.00 0.00
11:53 am 11:53 Partly Cloudy 69 20.6 47 8.3 45 45 E 9 15 29.78 1008 10 16 0.00 0.00
12:53 pm 12:53 Partly Cloudy 73 22.8 48 8.9 41 41 E 10 17 29.77 1008 10 16 0.00 0.00
1:53 pm 13:53 Mostly Cloudy 74 23.3 48 8.9 40 40 VRB 3 6 29.77 1008 10 16 0.00 0.00
2:53 pm 14:53 Mostly Cloudy 75 23.9 48 8.9 39 39 E 6 9 29.77 1008 10 16 0.00 0.00
3:53 pm 15:53 Mostly Cloudy 76 24.4 46 7.8 35 35 NNE 16 26 29.77 1008 10 16 0.00 0.00
4:53 pm 16:53 Mostly Cloudy 73 22.8 44 6.7 35 35 NE 17 28 29.77 1008 10 16 0.00 0.00
5:53 pm 17:53 Mostly Cloudy 71 21.7 45 7.2 39 39 NNE 17 28 29.78 1008 10 16 0.00 0.00
6:53 pm 18:53 Mostly Cloudy 69 20.6 44 6.7 41 41 NNE 18 30 29.80 1009 10 16 0.00 0.00
7:53 pm 19:53 Mostly Cloudy 62 16.7 45 7.2 54 54 NNE 21 33 29.85 1011 10 16 0.00 0.00
8:53 pm 20:53 Mostly Cloudy 55 12.8 42 5.6 62 62 NNE 17 28 29.89 1012 10 16 0.00 0.00
9:53 pm 21:53 Mostly Cloudy 52 11.1 41 5 66 66 NNE 17 28 29.91 1013 10 16 0.00 0.00
10:53 pm 22:53 Mostly Cloudy 50 10 41 5 71 71 NE 17 28 29.93 1013 10 16 0.00 0.03
11:53 pm 23:53 Cloudy 49 9.4 40 4.4 71 71 NNE 13 20 29.93 1014 10 16 0.00 0.00

Powered by AerisWeather